Location: Pedholt
(56.0260°N, 10.2097°E)
Time: 03:50:30
(UTC+00:00)

Vanguard 3 - Visible Passes

Search period start: 01 August 2021 00:00
Search period end: 11 August 2021 00:00
Orbit: 508 x 3261 km, 33.4° (Epoch: 31 July)

Date Brightness Start Highest point End Pass type
(mag) Time Alt. Az. Time Alt. Az. Time Alt. Az.
01 Aug 10.6 20:19:07 10° WSW 20:34:13 32° SSW 20:49:33 10° SE visible
01 Aug 10.7 22:34:18 10° WSW 22:46:41 21° SW 22:54:01 16° S visible
02 Aug 10.7 21:17:28 10° WSW 21:31:37 27° SSW 21:43:06 15° SSE visible
02 Aug 11.0 23:36:46 10° WSW 23:43:12 13° SW 23:47:33 11° SW visible
03 Aug 10.7 20:01:50 10° WSW 20:16:12 31° SSW 20:31:39 10° SE visible
03 Aug 10.8 22:17:04 10° WSW 22:28:39 20° SW 22:36:41 14° S visible
04 Aug 10.8 21:00:14 10° WSW 21:13:36 25° SSW 21:25:51 13° SSE visible
04 Aug 11.1 23:21:13 10° WSW 23:25:10 11° SW 23:29:04 10° SW visible
05 Aug 10.8 19:44:44 10° WSW 19:58:13 30° SSW 20:13:28 10° SE visible
05 Aug 11.0 22:00:09 10° WSW 22:10:37 18° SW 22:19:33 12° S visible
06 Aug 10.9 20:43:15 10° WSW 20:55:36 23° SSW 21:08:50 10° SSE visible
07 Aug 10.8 19:27:50 10° WSW 19:40:20 28° SSW 19:55:04 10° SSE visible
07 Aug 11.1 21:43:40 10° WSW 21:52:38 16° SW 22:01:57 10° S visible
08 Aug 11.0 20:26:32 10° WSW 20:37:41 21° SSW 20:50:10 10° S visible
09 Aug 11.2 21:27:50 10° WSW 21:34:43 13° SW 21:41:58 10° SSW visible
10 Aug 11.1 20:10:08 10° WSW 20:19:51 19° SSW 20:30:58 10° S visible
